Find Starlink 33765

NORAD ID: 63473 Int'l Des: 2025-070 Owner: SPXS Country: US Constellation: starlink operational
LEOCIRCULAR

現在のビュー

3D地球を読み込み中...

About Starlink 33765

Starlink 33765 (NORAD 63473) is a starlink constellation satellite (v2 mini) launched Apr 6, 2025 by SPXS of US. It operates in LEO, CIRCULAR orbit with a mass of 575.00 kg.

次回通過

Passes for default location (London). Set your location on the main map for personalized predictions.

高度履歴

Loading altitude history...

軌道要素

1 63473U 25070P 26236.46139743 .00016890 00000-0 62163-3 0 9998
2 63473 42.9963 32.4219 0001082 274.1356 85.9372 15.27593607 78631
Epoch: Aug 24, 2026 • Age: 15 hours

現在のステータス

高度 486.4 km
遠地点 / 近地点 N/A
速度 7.63 km/s
衛星直下点 40.96°N, 142.93°E
打ち上げ日 Apr 6, 2025
運用期間 1.3 years
タイプ internet

技術仕様

分類 Payload
質量 575.00 kg
乾燥質量 530.00 kg
総質量 575.00 kg
長さ 0.30 m
直径 4.10 m
スパン 29.00 m
形状 Box + pan
製造者 SPXS
バスタイプ Starlink V2MO
フェーズステータス In Orbit
所有者/国 SPXS/US

Most Searched